time, Switch, Flow(0), Analog(2)
yyyy/mm/dd HH:MM:SS.fff, True=FILTERED|False=TOTAL, L/min, V
2023/06/14 12:00:03.541, True, 3.975, 0.141146
2023/06/14 12:00:04.045, True, 2.321, 0.141070
2023/06/14 12:00:04.541, True, 1.348, 0.144427
2023/06/14 12:00:05.045, True, 0.663, 0.143206
2023/06/14 12:00:05.549, True, 0.663, 0.142748
2023/06/14 12:00:06.052, True, 0.663, 0.142824
2023/06/14 12:00:06.549, True, 0.337, 0.141375
2023/06/14 12:00:07.053, True, 0.663, 0.142672
2023/06/14 12:00:07.549, True, 0.337, 0.142290
2023/06/14 12:00:08.053, True, 0.663, 0.143282
2023/06/14 12:00:08.557, True, 0.332, 0.143587
2023/06/14 12:00:09.052, True, 0.337, 0.141146
2023/06/14 12:00:09.557, True, 0.663, 0.141222
2023/06/14 12:00:10.061, True, 0.332, 0.144198
2023/06/14 12:00:10.557, True, 0.674, 0.142824
2023/06/14 12:00:11.061, True, 0.332, 0.141680
2023/06/14 12:00:11.565, True, 0.663, 0.143664
2023/06/14 12:00:12.069, True, 0.332, 0.143053
2023/06/14 12:00:12.565, True, 0.336, 0.143740
2023/06/14 12:00:13.069, True, 0.663, 0.142138
2023/06/14 12:00:13.565, True, 0.337, 0.142367
2023/06/14 12:00:14.069, True, 0.332, 0.142977
2023/06/14 12:00:14.572, True, 0.663, 0.142290
2023/06/14 12:00:15.068, True, 0.337, 0.141222
2023/06/14 12:00:15.573, True, 0.332, 0.143206
2023/06/14 12:00:16.077, True, 0.663, 0.142138
2023/06/14 12:00:16.573, True, 0.337, 0.141375
2023/06/14 12:00:17.077, True, 0.332, 0.142596
2023/06/14 12:00:17.581, True, 0.662, 0.143053
2023/06/14 12:00:18.077, True, 0.337, 0.144732
2023/06/14 12:00:18.581, True, 0.331, 0.142901
2023/06/14 12:00:19.085, True, 0.663, 0.141756
2023/06/14 12:00:19.581, True, 0.337, 0.140383
2023/06/14 12:00:20.085, True, 0.332, 0.142519
2023/06/14 12:00:20.589, True, 0.664, 0.141451
2023/06/14 12:00:21.085, True, 0.337, 0.141604
2023/06/14 12:00:21.589, True, 0.332, 0.142824
2023/06/14 12:00:22.093, True, 0.663, 0.141299
2023/06/14 12:00:22.589, True, 0.337, 0.142901
2023/06/14 12:00:23.092, True, 0.332, 0.141527
2023/06/14 12:00:23.597, True, 0.663, 0.141909
2023/06/14 12:00:24.093, True, 0.337, 0.144732
2023/06/14 12:00:24.597, True, 0.331, 0.142748
2023/06/14 12:00:25.101, True, 0.664, 0.144045
2023/06/14 12:00:25.597, True, 0.337, 0.143053
2023/06/14 12:00:26.101, True, 0.332, 0.143359
2023/06/14 12:00:26.605, True, 0.663, 0.142672
2023/06/14 12:00:27.101, True, 0.337, 0.143435
2023/06/14 12:00:27.605, True, 0.332, 0.143664
2023/06/14 12:00:28.109, True, 0.664, 0.144884
2023/06/14 12:00:28.605, True, 0.337, 0.144808
2023/06/14 12:00:29.109, True, 0.332, 0.142901
2023/06/14 12:00:29.613, True, 0.332, 0.143053
2023/06/14 12:00:30.109, True, 0.674, 0.142367
2023/06/14 12:00:30.613, True, 0.332, 0.143130
2023/06/14 12:00:31.117, True, 0.332, 0.142290
2023/06/14 12:00:31.613, True, 0.674, 0.142672
2023/06/14 12:00:32.117, True, 0.332, 0.142519
2023/06/14 12:00:32.613, True, 0.674, 0.141909
2023/06/14 12:00:33.117, True, 0.332, 0.142367
2023/06/14 12:00:33.621, True, 0.332, 0.143130
2023/06/14 12:00:34.117, True, 0.674, 0.142061
2023/06/14 12:00:34.621, True, 0.332, 0.145190
2023/06/14 12:00:35.125, True, 0.332, 0.142977
2023/06/14 12:00:35.621, True, 0.674, 0.142519
2023/06/14 12:00:36.125, True, 0.332, 0.143511
2023/06/14 12:00:36.629, True, 0.332, 0.143282
2023/06/14 12:00:37.125, True, 0.337, 0.143130
2023/06/14 12:00:37.629, True, 0.663, 0.144121
2023/06/14 12:00:38.133, True, 0.332, 0.141909
2023/06/14 12:00:38.629, True, 0.337, 0.140612
2023/06/14 12:00:39.133, True, 0.663, 0.142290
2023/06/14 12:00:39.629, True, 0.337, 0.144274
2023/06/14 12:00:40.133, True, 0.332, 0.140917
2023/06/14 12:00:40.637, True, 0.663, 0.143587
2023/06/14 12:00:41.133, True, 0.337, 0.145113
2023/06/14 12:00:41.637, True, 0.332, 0.143053
2023/06/14 12:00:42.141, True, 0.663, 0.145342
2023/06/14 12:00:42.637, True, 0.337, 0.141680
2023/06/14 12:00:43.141, True, 0.331, 0.141756
2023/06/14 12:00:43.645, True, 0.663, 0.144503
2023/06/14 12:00:44.141, True, 0.337, 0.143435
2023/06/14 12:00:44.645, True, 0.332, 0.142824
2023/06/14 12:00:45.149, True, 0.663, 0.141833
2023/06/14 12:00:45.645, True, 0.337, 0.140993
2023/06/14 12:00:46.149, True, 0.332, 0.140383
2023/06/14 12:00:46.653, True, 0.663, 0.140154
2023/06/14 12:00:47.149, True, 0.337, 0.142443
2023/06/14 12:00:47.653, True, 0.332, 0.143282
2023/06/14 12:00:48.157, True, 0.663, 0.145190
2023/06/14 12:00:48.653, True, 0.337, 0.144350
2023/06/14 12:00:49.157, True, 0.332, 0.140917
2023/06/14 12:00:49.660, True, 0.331, 0.140993
2023/06/14 12:00:50.157, True, 0.674, 0.142214
2023/06/14 12:00:50.661, True, 0.331, 0.144274
2023/06/14 12:00:51.165, True, 0.332, 0.143740
2023/06/14 12:00:51.661, True, 0.337, 0.143816
2023/06/14 12:00:52.165, True, 0.663, 0.143359
2023/06/14 12:00:52.668, True, 0.332, 0.144274
2023/06/14 12:00:53.173, True, 0.331, 0.142443
2023/06/14 12:00:53.669, True, 0.674, 0.146029
2023/06/14 12:00:54.173, True, 0.332, 0.143664
2023/06/14 12:00:54.677, True, 0.332, 0.143816
2023/06/14 12:00:55.173, True, 0.674, 0.144350
2023/06/14 12:00:55.677, True, 0.332, 0.144961
2023/06/14 12:00:56.180, True, 0.331, 0.142214
2023/06/14 12:00:56.677, True, 0.337, 0.144961
2023/06/14 12:00:57.181, True, 0.663, 0.142672
2023/06/14 12:00:57.685, True, 0.331, 0.141299
2023/06/14 12:00:58.181, True, 0.337, 0.141909
2023/06/14 12:00:58.685, True, 0.332, 0.140612
2023/06/14 12:00:59.189, True, 0.663, 0.142672
2023/06/14 12:00:59.685, True, 0.337, 0.142519
2023/06/14 12:01:00.189, True, 0.332, 0.142977
2023/06/14 12:01:00.685, True, 0.674, 0.144427
2023/06/14 12:01:01.189, True, 0.332, 0.142138
2023/06/14 12:01:01.692, True, 0.332, 0.142824
2023/06/14 12:01:02.197, True, 0.662, 0.141070
2023/06/14 12:01:02.693, True, 0.337, 0.143282
2023/06/14 12:01:03.197, True, 0.332, 0.143893
2023/06/14 12:01:03.701, True, 0.332, 0.143893
2023/06/14 12:01:04.197, True, 0.674, 0.139620
2023/06/14 12:01:04.701, True, 0.332, 0.142672
2023/06/14 12:01:05.197, True, 0.337, 0.139849
2023/06/14 12:01:05.701, True, 0.331, 0.142367
2023/06/14 12:01:06.205, True, 0.663, 0.143435
2023/06/14 12:01:06.709, True, 0.332, 0.142748
2023/06/14 12:01:07.205, True, 0.337, 0.142138
2023/06/14 12:01:07.709, True, 0.663, 0.141070
2023/06/14 12:01:08.205, True, 0.337, 0.141680
2023/06/14 12:01:08.709, True, 0.332, 0.143740
2023/06/14 12:01:09.213, True, 0.332, 0.144045
2023/06/14 12:01:09.709, True, 0.674, 0.142977
2023/06/14 12:01:10.213, True, 0.332, 0.140536
2023/06/14 12:01:10.716, True, 0.332, 0.143664
2023/06/14 12:01:11.213, True, 0.674, 0.141909
2023/06/14 12:01:11.716, True, 0.332, 0.143053
2023/06/14 12:01:12.221, True, 0.332, 0.142519
2023/06/14 12:01:12.717, True, 0.337, 0.144732
2023/06/14 12:01:13.220, True, 0.663, 0.142214
2023/06/14 12:01:13.725, True, 0.332, 0.143359
2023/06/14 12:01:14.221, True, 0.337, 0.141909
2023/06/14 12:01:14.724, True, 0.663, 0.142214
2023/06/14 12:01:15.228, True, 0.332, 0.143816
2023/06/14 12:01:15.725, True, 0.337, 0.143969
2023/06/14 12:01:16.228, True, 0.332, 0.141527
2023/06/14 12:01:16.733, True, 0.663, 0.143969
2023/06/14 12:01:17.229, True, 0.337, 0.142443
2023/06/14 12:01:17.732, True, 0.332, 0.141909
2023/06/14 12:01:18.236, True, 0.663, 0.143435
2023/06/14 12:01:18.733, True, 0.337, 0.143053
2023/06/14 12:01:19.237, True, 0.332, 0.143511
2023/06/14 12:01:19.741, True, 0.662, 0.141909
2023/06/14 12:01:20.236, True, 0.337, 0.142214
2023/06/14 12:01:20.741, True, 0.332, 0.142672
2023/06/14 12:01:21.245, True, 0.332, 0.143740
2023/06/14 12:01:21.741, True, 0.674, 0.139849
2023/06/14 12:01:22.245, True, 0.332, 0.142367
2023/06/14 12:01:22.749, True, 0.332, 0.143435
2023/06/14 12:01:23.245, True, 0.337, 0.144198
2023/06/14 12:01:23.749, True, 0.663, 0.141680
2023/06/14 12:01:24.253, True, 0.332, 0.143740
2023/06/14 12:01:24.749, True, 0.337, 0.144656
2023/06/14 12:01:25.253, True, 0.331, 0.143359
2023/06/14 12:01:25.757, True, 0.664, 0.142290
2023/06/14 12:01:26.252, True, 0.337, 0.143435
2023/06/14 12:01:26.756, True, 0.332, 0.144350
2023/06/14 12:01:27.261, True, 0.663, 0.143053
2023/06/14 12:01:27.757, True, 0.337, 0.144961
2023/06/14 12:01:28.261, True, 0.331, 0.145571
2023/06/14 12:01:28.765, True, 0.331, 0.142367
2023/06/14 12:01:29.260, True, 0.674, 0.143664
2023/06/14 12:01:29.765, True, 0.332, 0.141146
2023/06/14 12:01:30.269, True, 0.331, 0.142977
2023/06/14 12:01:30.772, True, 0.663, 0.144045
2023/06/14 12:01:31.269, True, 0.337, 0.142138
2023/06/14 12:01:31.773, True, 0.332, 0.142672
2023/06/14 12:01:32.277, True, 0.663, 0.142061
2023/06/14 12:01:32.772, True, 0.337, 0.143816
2023/06/14 12:01:33.276, True, 0.332, 0.142748
2023/06/14 12:01:33.781, True, 0.663, 0.143053
2023/06/14 12:01:34.277, True, 0.337, 0.143969
2023/06/14 12:01:34.780, True, 0.332, 0.142214
2023/06/14 12:01:35.285, True, 0.331, 0.143816
2023/06/14 12:01:35.781, True, 0.674, 0.143435
2023/06/14 12:01:36.285, True, 0.332, 0.143816
2023/06/14 12:01:36.789, True, 0.331, 0.143282
2023/06/14 12:01:37.285, True, 0.674, 0.140764
2023/06/14 12:01:37.789, True, 0.332, 0.143511
2023/06/14 12:01:38.293, True, 0.332, 0.143206
2023/06/14 12:01:38.796, True, 0.331, 0.143435
2023/06/14 12:01:39.292, True, 0.675, 0.142290
2023/06/14 12:01:39.797, True, 0.331, 0.144121
2023/06/14 12:01:40.293, True, 0.337, 0.142138
2023/06/14 12:01:40.797, True, 0.331, 0.144350
2023/06/14 12:01:41.301, True, 0.664, 0.142138
2023/06/14 12:01:41.797, True, 0.337, 0.141527
2023/06/14 12:01:42.300, True, 0.331, 0.141070
2023/06/14 12:01:42.805, True, 0.663, 0.143435
2023/06/14 12:01:43.301, True, 0.337, 0.141909
2023/06/14 12:01:43.805, True, 0.332, 0.144045
2023/06/14 12:01:44.309, True, 0.332, 0.142672
2023/06/14 12:01:44.805, True, 0.673, 0.141909
2023/06/14 12:01:45.309, True, 0.332, 0.144579
2023/06/14 12:01:45.812, True, 0.332, 0.142061
2023/06/14 12:01:46.309, True, 0.673, 0.142977
2023/06/14 12:01:46.812, True, 0.332, 0.143969
2023/06/14 12:01:47.317, True, 0.332, 0.144045
2023/06/14 12:01:47.812, True, 0.336, 0.142138
2023/06/14 12:01:48.317, True, 0.663, 0.142596
2023/06/14 12:01:48.821, True, 0.332, 0.144274
2023/06/14 12:01:49.317, True, 0.337, 0.141756
2023/06/14 12:01:49.820, True, 0.332, 0.140841
2023/06/14 12:01:50.325, True, 0.664, 0.144350
2023/06/14 12:01:50.820, True, 0.336, 0.143206
2023/06/14 12:01:51.325, True, 0.332, 0.144045
2023/06/14 12:01:51.829, True, 0.332, 0.143130
2023/06/14 12:01:52.325, True, 0.337, 0.143206
2023/06/14 12:01:52.829, True, 0.663, 0.145953
2023/06/14 12:01:53.333, True, 0.332, 0.145190
2023/06/14 12:01:53.829, True, 0.337, 0.144045
2023/06/14 12:01:54.333, True, 0.332, 0.144579
2023/06/14 12:01:54.837, True, 0.664, 0.144427
2023/06/14 12:01:55.333, True, 0.337, 0.142748
2023/06/14 12:01:55.836, True, 0.332, 0.145953
2023/06/14 12:01:56.340, True, 0.663, 0.143893
2023/06/14 12:01:56.837, True, 0.337, 0.143893
2023/06/14 12:01:57.341, True, 0.332, 0.145266
2023/06/14 12:01:57.845, True, 0.663, 0.146258
2023/06/14 12:01:58.349, True, 0.332, 0.145342
2023/06/14 12:01:58.845, True, 0.337, 0.145342
2023/06/14 12:01:59.349, True, 0.332, 0.146410
2023/06/14 12:01:59.853, True, 0.332, 0.146334
2023/06/14 12:02:00.349, True, 0.674, 0.147173
2023/06/14 12:02:00.853, True, 0.332, 0.146487
2023/06/14 12:02:01.357, True, 0.332, 0.144884
2023/06/14 12:02:01.852, True, 0.674, 0.146563
2023/06/14 12:02:02.357, True, 0.332, 0.145647
2023/06/14 12:02:02.861, True, 0.332, 0.145876
2023/06/14 12:02:03.357, True, 0.337, 0.144961
2023/06/14 12:02:03.861, True, 0.663, 0.144274
2023/06/14 12:02:04.365, True, 0.332, 0.146410
2023/06/14 12:02:04.860, True, 0.337, 0.147631
2023/06/14 12:02:05.364, True, 0.332, 0.145342
2023/06/14 12:02:05.869, True, 0.663, 0.144579
2023/06/14 12:02:06.365, True, 0.337, 0.144045
2023/06/14 12:02:06.869, True, 0.332, 0.146334
2023/06/14 12:02:07.373, True, 0.331, 0.147402
2023/06/14 12:02:07.869, True, 0.674, 0.147631
2023/06/14 12:02:08.373, True, 0.332, 0.146334
2023/06/14 12:02:08.877, True, 0.331, 0.146563
2023/06/14 12:02:09.373, True, 0.337, 0.145724
2023/06/14 12:02:09.876, True, 0.332, 0.146868
2023/06/14 12:02:10.381, True, 0.663, 0.148623
2023/06/14 12:02:10.877, True, 0.337, 0.145190
2023/06/14 12:02:11.381, True, 0.332, 0.146105
2023/06/14 12:02:11.885, True, 0.332, 0.149157
2023/06/14 12:02:12.381, True, 0.674, 0.148013
2023/06/14 12:02:12.885, True, 0.332, 0.146792
2023/06/14 12:02:13.389, True, 0.332, 0.146715
2023/06/14 12:02:13.884, True, 0.337, 0.147707
2023/06/14 12:02:14.389, True, 0.332, 0.146715
2023/06/14 12:02:14.893, True, 0.665, 0.148852
2023/06/14 12:02:15.397, True, 0.331, 0.148699
2023/06/14 12:02:15.892, True, 0.337, 0.148165
2023/06/14 12:02:16.397, True, 0.332, 0.150072
2023/06/14 12:02:16.901, True, 0.663, 0.148165
2023/06/14 12:02:17.396, True, 0.338, 0.147936
2023/06/14 12:02:17.901, True, 0.331, 0.147250
2023/06/14 12:02:18.405, True, 0.332, 0.149767
2023/06/14 12:02:18.901, True, 0.674, 0.149920
2023/06/14 12:02:19.405, True, 0.332, 0.148241
2023/06/14 12:02:19.909, True, 0.332, 0.148928
2023/06/14 12:02:20.405, True, 0.336, 0.149996
2023/06/14 12:02:20.909, True, 0.332, 0.149386
2023/06/14 12:02:21.413, True, 0.663, 0.153048
2023/06/14 12:02:21.909, True, 0.337, 0.151446
2023/06/14 12:02:22.413, True, 0.331, 0.151369
2023/06/14 12:02:22.917, True, 0.663, 0.149615
2023/06/14 12:02:23.413, True, 0.337, 0.153201
2023/06/14 12:02:23.917, True, 0.332, 0.152590
2023/06/14 12:02:24.421, True, 0.332, 0.151217
2023/06/14 12:02:24.917, True, 0.675, 0.153582
2023/06/14 12:02:25.421, True, 0.331, 0.150225
2023/06/14 12:02:25.925, True, 0.332, 0.151675
2023/06/14 12:02:26.420, True, 0.337, 0.150301
2023/06/14 12:02:26.924, True, 0.664, 0.150759
2023/06/14 12:02:27.429, True, 0.331, 0.150378
2023/06/14 12:02:27.925, True, 0.337, 0.150301
2023/06/14 12:02:28.429, True, 0.332, 0.150683
2023/06/14 12:02:28.933, True, 0.332, 0.152209
2023/06/14 12:02:29.429, True, 0.674, 0.152132
2023/06/14 12:02:29.932, True, 0.332, 0.153201
2023/06/14 12:02:30.437, True, 0.331, 0.152514
2023/06/14 12:02:30.932, True, 0.337, 0.152514
2023/06/14 12:02:31.437, True, 0.663, 0.151522
2023/06/14 12:02:31.941, True, 0.332, 0.155032
2023/06/14 12:02:32.437, True, 0.337, 0.153887
2023/06/14 12:02:32.941, True, 0.332, 0.153429
2023/06/14 12:02:33.445, True, 0.663, 0.153658
2023/06/14 12:02:33.941, True, 0.337, 0.151598
2023/06/14 12:02:34.444, True, 0.332, 0.153887
2023/06/14 12:02:34.949, True, 0.332, 0.152132
2023/06/14 12:02:35.444, True, 0.674, 0.153964
2023/06/14 12:02:35.948, True, 0.332, 0.152132
2023/06/14 12:02:36.452, True, 0.331, 0.153582
2023/06/14 12:02:36.957, True, 0.332, 0.153277
2023/06/14 12:02:37.453, True, 0.673, 0.152972
2023/06/14 12:02:37.956, True, 0.332, 0.152056
2023/06/14 12:02:38.461, True, 0.332, 0.153429
2023/06/14 12:02:38.957, True, 0.337, 0.151598
2023/06/14 12:02:39.461, True, 0.663, 0.153735
2023/06/14 12:02:39.956, True, 0.337, 0.154421
2023/06/14 12:02:40.461, True, 0.332, 0.154116
2023/06/14 12:02:40.965, True, 0.332, 0.153353
2023/06/14 12:02:41.461, True, 0.337, 0.152667
2023/06/14 12:02:41.964, True, 0.663, 0.152132
2023/06/14 12:02:42.469, True, 0.332, 0.152667
2023/06/14 12:02:42.965, True, 0.337, 0.155489
2023/06/14 12:02:43.468, True, 0.332, 0.156863
2023/06/14 12:02:43.972, True, 0.332, 0.152819
2023/06/14 12:02:44.468, True, 0.337, 0.154040
2023/06/14 12:02:44.972, True, 0.663, 0.152895
2023/06/14 12:02:45.476, True, 0.332, 0.154345
2023/06/14 12:02:45.972, True, 0.337, 0.151751
2023/06/14 12:02:46.476, True, 0.332, 0.154116
2023/06/14 12:02:46.972, True, 0.673, 0.151141
2023/06/14 12:02:47.476, True, 0.332, 0.155184
2023/06/14 12:02:47.981, True, 0.332, 0.155413
2023/06/14 12:02:48.484, True, 0.331, 0.157778
2023/06/14 12:02:48.980, True, 0.337, 0.154803
2023/06/14 12:02:49.485, True, 0.663, 0.155337
2023/06/14 12:02:49.988, True, 0.332, 0.155795
2023/06/14 12:02:50.484, True, 0.337, 0.154955
2023/06/14 12:02:50.988, True, 0.331, 0.156100
2023/06/14 12:02:51.493, True, 0.332, 0.155413
2023/06/14 12:02:51.989, True, 0.337, 0.154192
2023/06/14 12:02:52.492, True, 0.663, 0.155947
2023/06/14 12:02:52.988, True, 0.337, 0.155413
2023/06/14 12:02:53.493, True, 0.332, 0.152972
2023/06/14 12:02:53.996, True, 0.331, 0.156634
2023/06/14 12:02:54.492, True, 0.674, 0.153811
2023/06/14 12:02:54.997, True, 0.332, 0.154498
2023/06/14 12:02:55.501, True, 0.332, 0.154650
2023/06/14 12:02:55.997, True, 0.337, 0.155489
2023/06/14 12:02:56.501, True, 0.664, 0.154650
2023/06/14 12:02:57.005, True, 0.332, 0.155337
2023/06/14 12:02:57.500, True, 0.337, 0.154650
2023/06/14 12:02:58.004, True, 0.331, 0.154650
2023/06/14 12:02:58.509, True, 0.332, 0.153582
2023/06/14 12:02:59.013, True, 0.663, 0.152361
2023/06/14 12:02:59.508, True, 0.336, 0.152590
2023/06/14 12:03:00.012, True, 0.331, 0.153658
2023/06/14 12:03:00.509, True, 0.338, 0.152819
2023/06/14 12:03:01.012, True, 0.331, 0.155718
2023/06/14 12:03:01.517, True, 0.332, 0.155566
2023/06/14 12:03:02.021, True, 0.663, 0.154421
2023/06/14 12:03:02.517, True, 0.337, 0.153506
2023/06/14 12:03:03.020, True, 0.332, 0.155795
2023/06/14 12:03:03.524, True, 0.332, 0.156558
2023/06/14 12:03:04.021, True, 0.337, 0.156023
2023/06/14 12:03:04.525, True, 0.663, 0.154726
2023/06/14 12:03:05.029, True, 0.332, 0.156100
2023/06/14 12:03:05.532, True, 0.331, 0.153811
2023/06/14 12:03:06.029, True, 0.337, 0.154421
2023/06/14 12:03:06.532, True, 0.663, 0.153429
2023/06/14 12:03:07.029, True, 0.337, 0.154803
2023/06/14 12:03:07.532, True, 0.332, 0.153887
2023/06/14 12:03:08.036, True, 0.332, 0.153277
2023/06/14 12:03:08.541, True, 0.332, 0.155413
2023/06/14 12:03:09.036, True, 0.674, 0.152819
2023/06/14 12:03:09.540, True, 0.332, 0.154345
2023/06/14 12:03:10.045, True, 0.332, 0.153887
2023/06/14 12:03:10.540, True, 0.337, 0.153811
2023/06/14 12:03:11.045, True, 0.332, 0.152743
2023/06/14 12:03:11.549, True, 0.332, 0.153964
2023/06/14 12:03:12.045, True, 0.674, 0.154650
2023/06/14 12:03:12.549, True, 0.332, 0.155413
2023/06/14 12:03:13.045, True, 0.337, 0.154116
2023/06/14 12:03:13.549, True, 0.332, 0.153506
2023/06/14 12:03:14.052, True, 0.663, 0.155489
2023/06/14 12:03:14.549, True, 0.337, 0.153887
2023/06/14 12:03:15.052, True, 0.332, 0.155871
2023/06/14 12:03:15.557, True, 0.332, 0.154040
2023/06/14 12:03:16.052, True, 0.337, 0.154879
2023/06/14 12:03:16.557, True, 0.663, 0.152667
2023/06/14 12:03:17.061, True, 0.332, 0.153735
2023/06/14 12:03:17.556, True, 0.337, 0.155261
2023/06/14 12:03:18.060, True, 0.332, 0.154345
2023/06/14 12:03:18.564, True, 0.332, 0.154269
2023/06/14 12:03:19.061, True, 0.337, 0.154421
2023/06/14 12:03:19.565, True, 0.663, 0.154498
2023/06/14 12:03:20.068, True, 0.332, 0.153964
2023/06/14 12:03:20.565, True, 0.337, 0.152819
2023/06/14 12:03:21.069, True, 0.331, 0.155261
2023/06/14 12:03:21.572, True, 0.332, 0.152438
2023/06/14 12:03:22.069, True, 0.674, 0.155108
2023/06/14 12:03:22.572, True, 0.332, 0.152285
2023/06/14 12:03:23.076, True, 0.332, 0.153429
2023/06/14 12:03:23.573, True, 0.337, 0.153277
2023/06/14 12:03:24.076, True, 0.663, 0.155489
2023/06/14 12:03:24.572, True, 0.337, 0.154650
2023/06/14 12:03:25.076, True, 0.332, 0.153201
2023/06/14 12:03:25.581, True, 0.331, 0.153811
2023/06/14 12:03:26.076, True, 0.337, 0.154421
2023/06/14 12:03:26.581, True, 0.663, 0.155642
2023/06/14 12:03:27.084, True, 0.332, 0.153582
2023/06/14 12:03:27.588, True, 0.332, 0.154574
2023/06/14 12:03:28.084, True, 0.337, 0.156252
2023/06/14 12:03:28.589, True, 0.332, 0.155413
2023/06/14 12:03:29.084, True, 0.337, 0.155795
2023/06/14 12:03:29.589, True, 0.663, 0.153048
2023/06/14 12:03:30.092, True, 0.332, 0.153964
2023/06/14 12:03:30.588, True, 0.337, 0.154726
2023/06/14 12:03:31.092, True, 0.331, 0.153964
2023/06/14 12:03:31.596, True, 0.663, 0.152743
2023/06/14 12:03:32.092, True, 0.337, 0.152514
2023/06/14 12:03:32.597, True, 0.331, 0.155184
2023/06/14 12:03:33.101, True, 0.332, 0.154574
2023/06/14 12:03:33.596, True, 0.337, 0.152667
2023/06/14 12:03:34.100, True, 0.663, 0.153429
2023/06/14 12:03:34.604, True, 0.332, 0.151980
2023/06/14 12:03:35.101, True, 0.337, 0.152361
2023/06/14 12:03:35.604, True, 0.332, 0.153506
2023/06/14 12:03:36.109, True, 0.332, 0.155795
2023/06/14 12:03:36.605, True, 0.674, 0.156939
2023/06/14 12:03:37.108, True, 0.332, 0.154192
2023/06/14 12:03:37.612, True, 0.332, 0.152819
2023/06/14 12:03:38.109, True, 0.336, 0.155642
2023/06/14 12:03:38.612, True, 0.332, 0.154726
2023/06/14 12:03:39.117, True, 0.663, 0.153353
2023/06/14 12:03:39.612, True, 0.337, 0.153964
2023/06/14 12:03:40.117, True, 0.332, 0.153353
2023/06/14 12:03:40.621, True, 0.332, 0.152819
2023/06/14 12:03:41.116, True, 0.674, 0.153735
2023/06/14 12:03:41.620, True, 0.332, 0.154803
2023/06/14 12:03:42.124, True, 0.332, 0.153964
2023/06/14 12:03:42.620, True, 0.337, 0.153735
2023/06/14 12:03:43.125, True, 0.332, 0.153658
2023/06/14 12:03:43.628, True, 0.663, 0.153887
2023/06/14 12:03:44.125, True, 0.337, 0.156176
2023/06/14 12:03:44.628, True, 0.332, 0.151827
2023/06/14 12:03:45.124, True, 0.337, 0.158389
2023/06/14 12:03:45.629, True, 0.332, 0.154421
2023/06/14 12:03:46.132, True, 0.663, 0.155947
2023/06/14 12:03:46.636, True, 0.332, 0.153048
2023/06/14 12:03:47.132, True, 0.337, 0.151217
2023/06/14 12:03:47.636, True, 0.332, 0.153658
2023/06/14 12:03:48.140, True, 0.331, 0.153048
2023/06/14 12:03:48.637, True, 0.674, 0.153048
2023/06/14 12:03:49.140, True, 0.332, 0.156329
2023/06/14 12:03:49.644, True, 0.332, 0.154803
2023/06/14 12:03:50.140, True, 0.337, 0.153735
2023/06/14 12:03:50.644, True, 0.332, 0.154498
2023/06/14 12:03:51.148, True, 0.663, 0.153506
2023/06/14 12:03:51.645, True, 0.337, 0.154345
2023/06/14 12:03:52.148, True, 0.332, 0.153201
2023/06/14 12:03:52.652, True, 0.332, 0.154803
2023/06/14 12:03:53.148, True, 0.337, 0.154192
2023/06/14 12:03:53.652, True, 0.663, 0.153811
2023/06/14 12:03:54.157, True, 0.332, 0.152895
2023/06/14 12:03:54.652, True, 0.337, 0.156176
2023/06/14 12:03:55.156, True, 0.332, 0.151904
2023/06/14 12:03:55.660, True, 0.332, 0.152819
2023/06/14 12:03:56.156, True, 0.674, 0.152743
2023/06/14 12:03:56.660, True, 0.331, 0.154879
2023/06/14 12:03:57.164, True, 0.332, 0.153277
2023/06/14 12:03:57.661, True, 0.337, 0.153964
2023/06/14 12:03:58.164, True, 0.331, 0.153964
2023/06/14 12:03:58.668, True, 0.664, 0.153353
2023/06/14 12:03:59.164, True, 0.337, 0.152132
2023/06/14 12:03:59.668, True, 0.331, 0.152514
2023/06/14 12:04:00.172, True, 0.332, 0.152361
2023/06/14 12:04:00.669, True, 0.337, 0.155947
2023/06/14 12:04:01.172, True, 0.663, 0.155566
2023/06/14 12:04:01.676, True, 0.332, 0.155489
2023/06/14 12:04:02.172, True, 0.337, 0.152895
2023/06/14 12:04:02.676, True, 0.332, 0.151751
2023/06/14 12:04:03.180, True, 0.332, 0.153124
2023/06/14 12:04:03.676, True, 0.674, 0.154345
2023/06/14 12:04:04.180, True, 0.332, 0.154498
2023/06/14 12:04:04.684, True, 0.331, 0.153964
2023/06/14 12:04:05.180, True, 0.337, 0.153735
2023/06/14 12:04:05.684, True, 0.331, 0.153201
2023/06/14 12:04:06.188, True, 0.332, 0.154726
2023/06/14 12:04:06.684, True, 0.337, 0.154498
2023/06/14 12:04:07.188, True, 0.663, 0.154574
2023/06/14 12:04:07.684, True, 0.337, 0.152209
2023/06/14 12:04:08.188, True, 0.332, 0.152972
2023/06/14 12:04:08.692, True, 0.331, 0.154879
2023/06/14 12:04:09.188, True, 0.337, 0.154345
2023/06/14 12:04:09.692, True, 0.662, 0.151980
2023/06/14 12:04:10.196, True, 0.332, 0.152972
2023/06/14 12:04:10.692, True, 0.337, 0.152209
2023/06/14 12:04:11.196, True, 0.332, 0.151904
2023/06/14 12:04:11.692, True, 0.337, 0.152895
2023/06/14 12:04:12.196, True, 0.332, 0.152361
2023/06/14 12:04:12.700, True, 0.662, 0.152667